Terug naar catalogus

NOAA 16 DEB

ActiefSSO
NORAD 41412·DEBRIS·🇺🇸 United States

Gelanceerd Sep 21, 2000 vanaf Vandenberg Space Force Base

Loading…

Volgende Passages (komende 24 uur)

TLE

VersSource: Space-Track

Epoch: Sep 14, 2026, 12:31 UTC

1 41412U 00055KR  26257.52210653  .00002831  00000-0  11437-2 0  9990
2 41412  98.6165 278.1718 0024694 188.9568 171.1176 14.28490029545011

Volg NOAA 16 DEB in realtime met AllMySat

Download on the App Store